Location: Izdebno
(52.6670°N, 16.2170°E)
Time: 03:04:31
(UTC+02:00)

Transit 4A - Pass Details

Date: 23 February 2024
Orbit: 871 x 972 km, 66.8° (Epoch: 22 April)

Event Time Altitude Azimuth Distance (km) Brightness Sun altitude
Rises 10:00:13 0° 320° (NW) 3,516 10.3 21.6°
Reaches altitude 10° 10:02:44 10° 319° (NW) 2,560 9.7 21.8°
Maximum altitude 10:08:39 80° 234° (SW) 896 8.3 22.3°
Drops below altitude 10° 10:14:27 10° 148° (SSE) 2,515 12.3 22.8°
Sets 10:16:54 0° 148° (SSE) 3,450 12.4 23.0°
